| time (UTC) | temp F | wind direction | speed MPH | gust MPH | rain 1hr in | rain 24hr in | rain mn in | humidity % | barometer mb |
| 20260504050506 | 55 | 0 | 0.0 | 0.0 | 0.00 | 0.31 | 0.01 | 97 | 1011.2 |
| 20260504050006 | 55 | 0 | 0.0 | 0.0 | 0.00 | 0.31 | 0.01 | 97 | 1011.1 |
| 20260504045006 | 54 | 0 | 0.0 | 0.0 | 0.00 | 0.31 | 0.01 | 97 | 1011.2 |
| 20260504042506 | 54 | 114 | 0.0 | 1.0 | 0.00 | 0.31 | 0.01 | 97 | 1011.2 |
| 20260504042007 | 55 | 331 | 0.0 | 1.0 | 0.00 | 0.31 | 0.01 | 97 | 1011.2 |
| 20260504041506 | 55 | 0 | 0.0 | 0.0 | 0.00 | 0.31 | 0.01 | 97 | 1011.2 |
| 20260504040506 | 54 | 0 | 0.0 | 0.0 | 0.00 | 0.31 | 0.01 | 97 | 1011.2 |
| 20260504040006 | 55 | 0 | 0.0 | 0.0 | 0.00 | 0.31 | 0.01 | 97 | 1011.2 |
| 20260504035507 | 54 | 0 | 0.0 | 0.0 | 0.00 | 0.31 | 0.01 | 97 | 1011.2 |
| 20260504035006 | 54 | 0 | 0.0 | 0.0 | 0.00 | 0.31 | 0.01 | 97 | 1011.2 |
| 20260504034506 | 54 | 0 | 0.0 | 0.0 | 0.00 | 0.31 | 0.01 | 97 | 1011.3 |
| 20260504034006 | 54 | 0 | 0.0 | 0.0 | 0.00 | 0.31 | 0.01 | 97 | 1011.3 |
| 20260504033506 | 54 | 0 | 0.0 | 0.0 | 0.00 | 0.31 | 0.01 | 97 | 1011.3 |
| 20260504033007 | 54 | 0 | 0.0 | 0.0 | 0.00 | 0.31 | 0.01 | 97 | 1011.3 |
| 20260504032006 | 54 | 0 | 0.0 | 0.0 | 0.00 | 0.31 | 0.01 | 97 | 1011.5 |
| 20260504031506 | 54 | 0 | 0.0 | 0.0 | 0.00 | 0.31 | 0.01 | 97 | 1011.5 |
| 20260504031008 | 54 | 0 | 0.0 | 0.0 | 0.00 | 0.31 | 0.01 | 97 | 1011.5 |
| 20260504030507 | 54 | 0 | 0.0 | 0.0 | 0.00 | 0.31 | 0.01 | 97 | 1011.6 |
| 20260504030006 | 54 | 0 | 0.0 | 0.0 | 0.00 | 0.31 | 0.01 | 97 | 1011.6 |
| 20260504025507 | 54 | 0 | 0.0 | 0.0 | 0.00 | 0.31 | 0.01 | 97 | 1011.5 |
| 20260504025007 | 53 | 0 | 0.0 | 0.0 | 0.00 | 0.31 | 0.01 | 96 | 1011.4 |
| 20260504024507 | 53 | 0 | 0.0 | 0.0 | 0.00 | 0.31 | 0.01 | 96 | 1011.3 |
| 20260504024006 | 53 | 0 | 0.0 | 0.0 | 0.00 | 0.31 | 0.01 | 97 | 1011.3 |
| 20260504023506 | 53 | 0 | 0.0 | 0.0 | 0.00 | 0.31 | 0.01 | 97 | 1011.2 |
| 20260504023006 | 53 | 0 | 0.0 | 0.0 | 0.00 | 0.31 | 0.01 | 96 | 1011.2 |
| 20260504022506 | 53 | 0 | 0.0 | 0.0 | 0.00 | 0.31 | 0.01 | 96 | 1011.2 |
| 20260504022006 | 53 | 0 | 0.0 | 0.0 | 0.00 | 0.31 | 0.01 | 96 | 1011.2 |
| 20260504021506 | 52 | 0 | 0.0 | 0.0 | 0.00 | 0.31 | 0.01 | 96 | 1011.2 |
| 20260504021007 | 52 | 0 | 0.0 | 0.0 | 0.00 | 0.31 | 0.01 | 96 | 1011.1 |
| 20260504020506 | 52 | 0 | 0.0 | 0.0 | 0.00 | 0.31 | 0.01 | 96 | 1011.1 |
| 20260504015506 | 52 | 0 | 0.0 | 0.0 | 0.00 | 0.31 | 0.01 | 96 | 1011.1 |
| 20260504015006 | 52 | 0 | 0.0 | 0.0 | 0.00 | 0.31 | 0.01 | 96 | 1011.0 |
| 20260504014006 | 51 | 0 | 0.0 | 0.0 | 0.00 | 0.31 | 0.01 | 96 | 1011.2 |
| 20260504013506 | 52 | 0 | 0.0 | 0.0 | 0.00 | 0.31 | 0.01 | 96 | 1011.2 |
| 20260504013006 | 51 | 0 | 0.0 | 0.0 | 0.00 | 0.31 | 0.01 | 96 | 1011.2 |
| 20260504012506 | 51 | 0 | 0.0 | 0.0 | 0.00 | 0.31 | 0.01 | 96 | 1011.1 |
| 20260504012006 | 51 | 0 | 0.0 | 0.0 | 0.00 | 0.31 | 0.01 | 95 | 1011.0 |
| 20260504011506 | 51 | 0 | 0.0 | 0.0 | 0.00 | 0.31 | 0.01 | 95 | 1011.1 |
| 20260504011006 | 52 | 0 | 0.0 | 0.0 | 0.00 | 0.31 | 0.01 | 95 | 1011.1 |
| 20260504010506 | 53 | 0 | 0.0 | 0.0 | 0.00 | 0.31 | 0.01 | 96 | 1011.0 |
| 20260504010006 | 53 | 0 | 0.0 | 0.0 | 0.00 | 0.31 | 0.01 | 96 | 1010.9 |
| 20260504005506 | 53 | 0 | 0.0 | 0.0 | 0.00 | 0.31 | 0.01 | 96 | 1011.0 |
| 20260504005007 | 53 | 0 | 0.0 | 0.0 | 0.00 | 0.31 | 0.01 | 96 | 1011.0 |
| 20260504004506 | 53 | 0 | 0.0 | 0.0 | 0.00 | 0.31 | 0.01 | 95 | 1011.0 |
| 20260504003006 | 53 | 0 | 0.0 | 0.0 | 0.00 | 0.31 | 0.01 | 95 | 1010.8 |
| 20260504002006 | 54 | 0 | 0.0 | 0.0 | 0.01 | 0.31 | 0.01 | 95 | 1010.9 |
| 20260504001506 | 54 | 0 | 0.0 | 0.0 | 0.01 | 0.31 | 0.01 | 95 | 1010.9 |
| 20260504001006 | 54 | 0 | 0.0 | 0.0 | 0.01 | 0.31 | 0.01 | 95 | 1010.9 |
| 20260504000506 | 55 | 0 | 0.0 | 0.0 | 0.01 | 0.31 | 0.01 | 95 | 1011.0 |
| 20260504000008 | 55 | 0 | 0.0 | 0.0 | 0.01 | 0.31 | 0.01 | 95 | 1011.1 |
| 20260503235007 | 56 | 0 | 0.0 | 0.0 | 0.01 | 0.31 | 0.01 | 95 | 1011.2 |
| 20260503234506 | 56 | 0 | 0.0 | 0.0 | 0.01 | 0.31 | 0.01 | 95 | 1011.1 |
| 20260503233506 | 56 | 183 | 0.0 | 3.0 | 0.01 | 0.31 | 0.01 | 95 | 1011.1 |
| 20260503233006 | 56 | 172 | 0.0 | 4.0 | 0.01 | 0.31 | 0.01 | 95 | 1011.1 |
| 20260503232506 | 56 | 177 | 0.0 | 5.0 | 0.00 | 0.31 | 0.00 | 96 | 1011.2 |
| 20260503232006 | 56 | 181 | 1.0 | 5.0 | 0.00 | 0.31 | 0.00 | 96 | 1011.2 |
| 20260503231506 | 56 | 178 | 1.0 | 5.0 | 0.00 | 0.31 | 0.00 | 95 | 1011.3 |
| 20260503231006 | 55 | 0 | 0.0 | 0.0 | 0.00 | 0.31 | 0.00 | 96 | 1011.3 |
| 20260503230006 | 55 | 0 | 0.0 | 0.0 | 0.00 | 0.31 | 0.00 | 95 | 1011.2 |
| 20260503225506 | 55 | 0 | 0.0 | 0.0 | 0.00 | 0.31 | 0.00 | 95 | 1011.2 |
| 20260503225006 | 55 | 0 | 0.0 | 0.0 | 0.00 | 0.31 | 0.00 | 95 | 1011.2 |
| 20260503224506 | 55 | 0 | 0.0 | 0.0 | 0.00 | 0.31 | 0.00 | 95 | 1011.2 |
| 20260503224006 | 55 | 0 | 0.0 | 0.0 | 0.00 | 0.31 | 0.00 | 95 | 1011.1 |
| 20260503223006 | 55 | 0 | 0.0 | 0.0 | 0.00 | 0.31 | 0.00 | 95 | 1011.1 |
| 20260503222006 | 55 | 0 | 0.0 | 0.0 | 0.00 | 0.31 | 0.00 | 95 | 1011.2 |
| 20260503221507 | 55 | 0 | 0.0 | 0.0 | 0.00 | 0.31 | 0.00 | 95 | 1011.2 |
| 20260503221006 | 55 | 0 | 0.0 | 0.0 | 0.00 | 0.31 | 0.00 | 94 | 1011.3 |
| 20260503220008 | 55 | 0 | 0.0 | 0.0 | 0.00 | 0.31 | 0.00 | 94 | 1011.2 |
| 20260503215506 | 56 | 0 | 0.0 | 0.0 | 0.00 | 0.31 | 0.31 | 94 | 1011.1 |
| 20260503215006 | 56 | 0 | 0.0 | 0.0 | 0.00 | 0.31 | 0.31 | 95 | 1011.1 |
| 20260503214503 | 56 | 0 | 0.0 | 0.0 | 0.00 | 0.32 | 0.31 | 94 | 1011.0 |
| 20260503214006 | 56 | 0 | 0.0 | 0.0 | 0.00 | 0.34 | 0.31 | 94 | 1011.1 |
| 20260503213521 | 56 | 178 | 0.0 | 2.0 | 0.00 | 0.35 | 0.31 | 94 | 1011.0 |
| 20260503213006 | 56 | 177 | 1.0 | 6.0 | 0.00 | 0.37 | 0.31 | 94 | 1011.0 |
| 20260503212506 | 56 | 176 | 1.0 | 6.0 | 0.00 | 0.38 | 0.31 | 94 | 1011.0 |
| 20260503211506 | 57 | 174 | 0.0 | 5.0 | 0.00 | 0.40 | 0.31 | 94 | 1011.0 |
| 20260503211006 | 57 | 181 | 0.0 | 5.0 | 0.00 | 0.41 | 0.31 | 94 | 1010.9 |
| 20260503210507 | 57 | 176 | 1.0 | 5.0 | 0.00 | 0.43 | 0.31 | 94 | 1011.0 |
| 20260503210006 | 57 | 170 | 1.0 | 5.0 | 0.00 | 0.48 | 0.31 | 94 | 1010.9 |
| 20260503205506 | 57 | 157 | 0.0 | 3.0 | 0.00 | 0.60 | 0.31 | 94 | 1010.8 |
| 20260503205021 | 57 | 0 | 0.0 | 0.0 | 0.00 | 0.76 | 0.31 | 94 | 1010.8 |
| 20260503204506 | 57 | 0 | 0.0 | 0.0 | 0.00 | 0.79 | 0.31 | 94 | 1010.8 |
| 20260503204006 | 57 | 187 | 0.0 | 4.0 | 0.00 | 0.79 | 0.31 | 94 | 1010.8 |
| 20260503203506 | 57 | 176 | 1.0 | 5.0 | 0.00 | 0.79 | 0.31 | 94 | 1010.9 |
| 20260503203007 | 57 | 176 | 1.0 | 5.0 | 0.00 | 0.79 | 0.31 | 94 | 1011.0 |
| 20260503202506 | 57 | 182 | 1.0 | 5.0 | 0.00 | 0.79 | 0.31 | 94 | 1011.0 |
| 20260503202006 | 57 | 176 | 1.0 | 4.0 | 0.00 | 0.79 | 0.31 | 94 | 1011.0 |
| 20260503201507 | 57 | 169 | 0.0 | 4.0 | 0.00 | 0.79 | 0.31 | 94 | 1010.9 |
| 20260503201006 | 57 | 162 | 1.0 | 4.0 | 0.00 | 0.79 | 0.31 | 94 | 1010.8 |
| 20260503200006 | 57 | 172 | 2.0 | 6.0 | 0.00 | 0.79 | 0.31 | 94 | 1010.9 |
| 20260503195506 | 57 | 174 | 2.0 | 6.0 | 0.00 | 0.79 | 0.31 | 94 | 1010.8 |
| 20260503193506 | 58 | 173 | 1.0 | 7.0 | 0.00 | 0.79 | 0.31 | 94 | 1010.6 |
| 20260503193006 | 58 | 172 | 2.0 | 6.0 | 0.01 | 0.79 | 0.31 | 94 | 1010.5 |
| 20260503192506 | 58 | 176 | 1.0 | 6.0 | 0.01 | 0.79 | 0.31 | 94 | 1010.5 |
| 20260503192007 | 59 | 189 | 0.0 | 4.0 | 0.01 | 0.79 | 0.31 | 94 | 1010.4 |
| 20260503191506 | 59 | 0 | 0.0 | 0.0 | 0.01 | 0.79 | 0.31 | 94 | 1010.3 |
| 20260503191006 | 59 | 0 | 0.0 | 0.0 | 0.02 | 0.79 | 0.31 | 93 | 1010.2 |
| 20260503190506 | 59 | 0 | 0.0 | 0.0 | 0.02 | 0.79 | 0.31 | 94 | 1010.2 |
| 20260503190006 | 59 | 0 | 0.0 | 0.0 | 0.02 | 0.79 | 0.31 | 94 | 1010.1 |
| 20260503185506 | 59 | 174 | 0.0 | 5.0 | 0.03 | 0.79 | 0.31 | 94 | 1010.0 |
| 20260503185003 | 59 | 174 | 1.0 | 5.0 | 0.03 | 0.79 | 0.31 | 93 | 1009.9 |
| 20260503184506 | 60 | 174 | 1.0 | 5.0 | 0.03 | 0.79 | 0.31 | 93 | 1010.0 |
| 20260503184006 | 60 | 173 | 1.0 | 6.0 | 0.03 | 0.79 | 0.31 | 93 | 1010.0 |
| 20260503182506 | 60 | 150 | 2.0 | 7.0 | 0.02 | 0.78 | 0.31 | 93 | 1009.9 |
| 20260503181506 | 60 | 148 | 0.0 | 4.0 | 0.02 | 0.78 | 0.31 | 93 | 1009.9 |
| 20260503181006 | 60 | 0 | 0.0 | 0.0 | 0.02 | 0.77 | 0.30 | 93 | 1009.9 |
| 20260503180506 | 60 | 0 | 0.0 | 0.0 | 0.01 | 0.76 | 0.29 | 93 | 1009.9 |
| 20260503180006 | 60 | 155 | 0.0 | 1.0 | 0.01 | 0.76 | 0.29 | 93 | 1009.8 |
| 20260503175506 | 60 | 177 | 0.0 | 3.0 | 0.00 | 0.76 | 0.28 | 93 | 1009.9 |
| 20260503175006 | 60 | 176 | 0.0 | 4.0 | 0.01 | 0.76 | 0.28 | 92 | 1009.9 |
| 20260503174506 | 61 | 175 | 0.0 | 4.0 | 0.01 | 0.76 | 0.28 | 92 | 1009.9 |
| 20260503174007 | 61 | 178 | 0.0 | 3.0 | 0.01 | 0.76 | 0.28 | 93 | 1009.9 |
| 20260503173506 | 61 | 0 | 0.0 | 0.0 | 0.01 | 0.76 | 0.28 | 93 | 1009.8 |
| 20260503173006 | 61 | 0 | 0.0 | 0.0 | 0.01 | 0.76 | 0.28 | 92 | 1009.6 |
| 20260503172506 | 62 | 0 | 0.0 | 0.0 | 0.01 | 0.76 | 0.28 | 93 | 1009.6 |
| 20260503172006 | 61 | 0 | 0.0 | 0.0 | 0.01 | 0.76 | 0.28 | 93 | 1009.5 |
| 20260503171507 | 62 | 0 | 0.0 | 0.0 | 0.01 | 0.76 | 0.28 | 92 | 1009.4 |
| 20260503171006 | 62 | 0 | 0.0 | 0.0 | 0.01 | 0.76 | 0.28 | 92 | 1009.4 |
| 20260503170506 | 62 | 0 | 0.0 | 0.0 | 0.01 | 0.76 | 0.28 | 92 | 1009.4 |
| 20260503150507 | 61 | 0 | 0.0 | 0.0 | 0.06 | 0.75 | 0.28 | 94 | 1009.7 |
| 20260503131007 | 61 | 160 | 1.0 | 6.0 | 0.02 | 0.67 | 0.20 | 93 | 1010.1 |
| 20260503130506 | 61 | 172 | 1.0 | 5.0 | 0.02 | 0.67 | 0.20 | 93 | 1010.1 |
| 20260503110506 | 61 | 177 | 1.0 | 5.0 | 0.05 | 0.61 | 0.13 | 94 | 1010.4 |
| 20260503090506 | 63 | 230 | 2.0 | 9.0 | 0.00 | 0.48 | 0.01 | 89 | 1010.3 |
| 20260503081007 | 62 | 211 | 1.0 | 5.0 | 0.00 | 0.48 | 0.01 | 91 | 1010.0 |
| 20260503080506 | 62 | 211 | 0.0 | 7.0 | 0.00 | 0.48 | 0.01 | 91 | 1010.0 |
| 20260503072006 | 61 | 163 | 2.0 | 5.0 | 0.00 | 0.48 | 0.01 | 94 | 1009.9 |
| 20260503071007 | 61 | 149 | 2.0 | 5.0 | 0.00 | 0.48 | 0.01 | 95 | 1009.8 |
| 20260503070506 | 60 | 150 | 2.0 | 5.0 | 0.00 | 0.48 | 0.01 | 95 | 1009.7 |